Regional Weather Roundup
Issued by NWS

Home | Current Version | Previous Version | Text Only | Print | Product List | Glossary Off
Versions: 1 2 3 4 5 6 7 8 9 10 11 12 13 14 15 16 17 18 19 20 21 22 23 24 25 26 27 28 29 30 31 32 33 34 35 36 37 38 39 40 41 42 43 44 45 46 47 48 49 50

000
ASUS43 KDTX 212310
RWRMI
MICHIGAN HOURLY REGIONAL WEATHER ROUNDUP
NATIONAL WEATHER SERVICE DETROIT/PONTIAC MI
700 PM EDT SAT OCT 21 2017

NOTE: "FAIR" INDICATES FEW OR NO CLOUDS BELOW 12,000 FEET WITH NO
SIGNIFICANT WEATHER AND/OR OBSTRUCTION TO VISIBILITY.

MIZ047>049-052>055-059>063-066>070-074>076-081>083-220000-
SOUTHEAST LOWER MICHIGAN

CITY           SKY/WX    TMP DP  RH WIND       PRES   REMARKS
ADRIAN         PTCLDY    69  47  45 SW10      30.16S
ALMA           CLOUDY    69  38  31 SW9       30.10R
ANN ARBOR      PTCLDY    66  55  67 E8        30.15S
BAD AXE        PTCLDY    67  52  58 S9        30.14R
CARO           MOCLDY    69  50  50 SE7       30.12S
DETROIT CITY   CLOUDY    66  53  63 SE6       30.17S
DETROIT        CLOUDY    67  54  63 SE7       30.17S
FLINT          CLOUDY    67  52  58 SE8       30.13S
GROSSE ILE     CLOUDY    65  54  65 SE6       30.16S
HILLSDALE      PTCLDY    66  43  42 SE3       30.15R
HOWELL         PTCLDY    67  50  52 S5        30.14R

CITY           SKY/WX    TMP DP  RH WIND       PRES   REMARKS
JACKSON        CLOUDY    69  48  47 SE8       30.14S
LAMBERTVILLE   PTCLDY    65  56  73 CALM      30.15S
LANSING        PTCLDY    70  45  40 S7        30.12R
LAPEER         FAIR      66  53  61 SE6       30.15S
MASON          MOCLDY    69  49  48 SE9       30.13S
MONROE         PTCLDY    65  56  72 E3        30.16R
MT. CLEMENS    MOCLDY    63  57  81 SE7       30.16R
PONTIAC        MOCLDY    66  55  67 SE8       30.15S
PORT HOPE        N/A     67  54  63 S7        30.12S
PORT HURON     CLOUDY    66  54  63 S6        30.18R
TRI CITIES     CLOUDY    71  47  42 S13       30.10S
MIDLAND        FAIR      71  43  36 S7        30.08R
TROY           PTCLDY    68  52  56 SE3       30.19R
SAGINAW HB     CLOUDY    68  46  45 S9        30.10S
$$
MIZ043>046-050>051-056>058-064>065-071>073-077>080-220000-
SOUTHWEST LOWER MICHIGAN

CITY           SKY/WX    TMP DP  RH WIND       PRES   REMARKS
BATTLE CREEK   PTCLDY    69  42  37 S12       30.11S
BENTON HARBOR  CLOUDY    72  53  51 S10       30.05R
BIG RAPIDS     CLEAR     67  42  40 SE5       30.06S
COLDWATER      CLOUDY    68  40  35 S5        30.13S
FREMONT        FAIR      69  47  46 SE7       30.05R
HOLLAND        LGT RAIN  69  53  56 SE8       30.06R
GRAND RAPIDS   PTCLDY    67  47  48 SE12      30.07S
IONIA          FAIR      67  41  39 SE6       30.09S
KALAMAZOO      PTCLDY    69  43  38 SE8       30.10F
LUDINGTON      CLEAR     69  53  56 S12       30.00S
MARSHALL       CLOUDY    68  44  41 S5        30.12R
MOUNT PLEASANT PTCLDY    72  39  30 S6        30.08R
MUSKEGON       MOCLDY    71  53  52 SE12      30.04R
SOUTH HAVEN    PTCLDY    72  53  52 S6        30.05S
$$
MIZ016>042-220000-
NORTHERN LOWER MICHIGAN

CITY           SKY/WX    TMP DP  RH WIND       PRES   REMARKS
ALPENA         CLOUDY    65  50  58 S7        30.07S
BEAVER ISLAND  CLEAR     65  47  51 SE5       29.98S
BELLAIRE       CLEAR     68  37  31 S6        30.02R
CADILLAC       CLEAR     67  41  38 S5        30.06R
CHARLEVOIX     CLEAR     68  41  37 SE5       30.03R
FRANKFORT      CLEAR     72  55  54 S9G20     29.99R
GAYLORD        CLOUDY    65  41  41 S12       30.06R
GRAYLING       CLOUDY    67  38  34 S7        30.07R
HARBOR SPRINGS CLEAR     69  36  30 S5        30.01R
HOUGHTON LAKE  PTCLDY    65  43  44 CALM      30.09R
MANISTEE       CLEAR     70  55  59 S9G16     30.00R
OSCODA         CLOUDY    67  47  48 S7        30.09R
PELLSTON       CLEAR     62  46  55 CALM      30.02R
ROGERS CITY    PTCLDY    67  47  48 S9        30.05R
TRAVERSE CITY  PTCLDY    71  46  40 VRB3      30.00R
$$
MIZ007>008-015-220000-
EASTERN UPPER MICHIGAN

CITY           SKY/WX    TMP DP  RH WIND       PRES   REMARKS
KINROSS        CLEAR     59  49  69 SE10      30.00F
MACKINAC ISLAN CLEAR     66  44  44 SE8       30.00S
NEWBERRY       CLEAR     61  48  62 S9        29.96S
S. S. MARIE    CLEAR     60  52  74 E6        30.00S
MUNISING         N/A     63  55  75 S14G26    29.87S
$$
MIZ004>006-011>014-085-220000-
CENTRAL UPPER MICHIGAN

CITY           SKY/WX    TMP DP  RH WIND       PRES   REMARKS
MANISTIQUE     CLEAR     59  53  81 S12       29.96S
ESCANABA       CLEAR     60  55  83 S13G24    29.93R
MENOMINEE      CLEAR     63  54  72 S9        29.92R
SAWYER-GWINN   CLEAR     61  52  72 S17G24    29.88R
$$
MIZ001>003-009>011-084-220000-
WESTERN UPPER MICHIGAN

CITY           SKY/WX    TMP DP  RH WIND       PRES   REMARKS
IRON MOUNTAIN  PTCLDY    66  52  60 SE14      29.86R
HOUGHTON       MOCLDY    64  55  72 E5        29.76S
COPPER HARBOR    N/A     63  54  72 S10G21    29.76F
IRONWOOD       CLOUDY    67  57  70 S13G24    29.74
$$

ABBREVIATIONS USED IN REMARKS
   TC - TEMPERATURE IN CELSIUS
  WCI - WIND CHILL INDEX
   HX - HEAT INDEX
  VSB - VISIBILITY





USA.gov is the U.S. government's official web portal to all federal, state and local government web resources and services.